TimeCDT,TemperatureF,Dew PointF,Humidity,Sea Level PressureIn,VisibilityMPH,Wind Direction,Wind SpeedMPH,Gust SpeedMPH,PrecipitationIn,Events,Conditions,WindDirDegrees,DateUTC
12:15 AM,55.4,41.2,59,29.96,10.0,WSW,3.5,-,N/A,,Clear,240,2013-10-02 05:15:00
12:35 AM,54.5,41.2,61,29.96,10.0,West,3.5,-,N/A,,Clear,260,2013-10-02 05:35:00
12:55 AM,53.8,41.5,63,29.97,10.0,West,3.5,-,N/A,,Clear,270,2013-10-02 05:55:00
1:15 AM,53.6,41.0,62,29.98,10.0,West,3.5,-,N/A,,Clear,270,2013-10-02 06:15:00
1:35 AM,51.6,41.9,69,29.98,10.0,West,3.5,-,N/A,,Clear,260,2013-10-02 06:35:00
1:55 AM,51.6,41.4,68,29.99,10.0,SW,3.5,-,N/A,,Clear,230,2013-10-02 06:55:00
2:15 AM,49.1,41.0,74,29.99,10.0,Calm,Calm,-,N/A,,Clear,0,2013-10-02 07:15:00
2:35 AM,46.4,40.6,80,29.99,10.0,WSW,3.5,-,N/A,,Clear,240,2013-10-02 07:35:00
2:55 AM,47.1,40.8,79,30.00,10.0,Calm,Calm,-,N/A,,Clear,0,2013-10-02 07:55:00
3:15 AM,45.5,40.3,82,30.00,10.0,Calm,Calm,-,N/A,,Clear,0,2013-10-02 08:15:00
3:35 AM,45.0,39.9,82,30.01,10.0,Calm,Calm,-,N/A,,Clear,0,2013-10-02 08:35:00
3:55 AM,46.2,40.3,80,30.01,10.0,Calm,Calm,-,N/A,,Clear,0,2013-10-02 08:55:00
4:15 AM,44.6,39.9,84,30.02,10.0,Calm,Calm,-,N/A,,Clear,0,2013-10-02 09:15:00
4:35 AM,44.1,40.1,86,30.03,10.0,Calm,Calm,-,N/A,,Clear,0,2013-10-02 09:35:00
4:55 AM,43.0,39.4,87,30.03,10.0,Calm,Calm,-,N/A,,Clear,0,2013-10-02 09:55:00
5:15 AM,44.2,39.4,83,30.04,10.0,Calm,Calm,-,N/A,,Clear,0,2013-10-02 10:15:00
5:35 AM,44.2,39.4,83,30.04,10.0,Calm,Calm,-,N/A,,Clear,0,2013-10-02 10:35:00
5:55 AM,41.7,38.7,89,30.06,10.0,SSW,3.5,-,N/A,,Clear,200,2013-10-02 10:55:00
6:15 AM,43.2,39.2,86,30.06,10.0,Calm,Calm,-,N/A,,Clear,0,2013-10-02 11:15:00
6:35 AM,43.5,39.7,87,30.07,10.0,Calm,Calm,-,N/A,,Clear,0,2013-10-02 11:35:00
6:55 AM,42.8,39.4,88,30.07,10.0,Calm,Calm,-,N/A,,Clear,0,2013-10-02 11:55:00
7:15 AM,43.0,39.4,87,30.08,10.0,Calm,Calm,-,N/A,,Clear,0,2013-10-02 12:15:00
7:35 AM,43.0,39.6,88,30.08,10.0,Calm,Calm,-,N/A,,Clear,0,2013-10-02 12:35:00
7:55 AM,45.1,42.3,90,30.09,10.0,Calm,Calm,-,N/A,,Clear,0,2013-10-02 12:55:00
8:15 AM,48.2,42.4,80,30.09,10.0,Calm,Calm,-,N/A,,Clear,0,2013-10-02 13:15:00
8:35 AM,51.1,42.4,72,30.10,10.0,Calm,Calm,-,N/A,,Clear,0,2013-10-02 13:35:00
8:55 AM,53.6,41.5,64,30.10,10.0,Calm,Calm,-,N/A,,Clear,0,2013-10-02 13:55:00
9:15 AM,55.4,42.1,61,30.10,10.0,Calm,Calm,-,N/A,,Clear,0,2013-10-02 14:15:00
9:35 AM,57.6,43.0,58,30.10,10.0,Calm,Calm,-,N/A,,Clear,0,2013-10-02 14:35:00
9:55 AM,59.5,42.6,54,30.11,10.0,Calm,Calm,-,N/A,,Clear,0,2013-10-02 14:55:00
10:15 AM,61.7,43.2,51,30.11,10.0,Calm,Calm,-,N/A,,Clear,0,2013-10-02 15:15:00
10:35 AM,63.7,44.2,49,30.11,10.0,Calm,Calm,-,N/A,,Clear,0,2013-10-02 15:35:00
10:55 AM,65.7,44.1,46,30.11,10.0,Calm,Calm,-,N/A,,Clear,0,2013-10-02 15:55:00
11:15 AM,69.1,42.8,39,30.11,10.0,SSE,3.5,-,N/A,,Clear,160,2013-10-02 16:15:00
11:35 AM,70.0,38.3,31,30.11,10.0,South,3.5,-,N/A,,Clear,170,2013-10-02 16:35:00
11:55 AM,70.7,37.8,30,30.10,10.0,Calm,Calm,-,N/A,,Clear,0,2013-10-02 16:55:00
12:15 PM,71.8,37.8,29,30.09,10.0,SSE,3.5,-,N/A,,Clear,160,2013-10-02 17:15:00
12:35 PM,71.2,34.3,26,30.09,10.0,WSW,3.5,-,N/A,,Clear,240,2013-10-02 17:35:00
12:55 PM,72.7,35.2,25,30.09,10.0,SW,5.8,-,N/A,,Clear,220,2013-10-02 17:55:00
1:15 PM,72.5,34.3,25,30.08,10.0,Calm,Calm,-,N/A,,Clear,0,2013-10-02 18:15:00
1:35 PM,72.9,34.5,25,30.07,10.0,Calm,Calm,-,N/A,,Clear,0,2013-10-02 18:35:00
1:55 PM,73.4,35.4,25,30.07,10.0,West,3.5,-,N/A,,Clear,270,2013-10-02 18:55:00
2:15 PM,74.1,35.6,25,30.06,10.0,SW,5.8,-,N/A,,Clear,220,2013-10-02 19:15:00
2:35 PM,74.7,35.8,24,30.06,10.0,SW,5.8,-,N/A,,Clear,220,2013-10-02 19:35:00
2:55 PM,74.1,35.4,24,30.05,10.0,Calm,Calm,-,N/A,,Clear,0,2013-10-02 19:55:00
3:15 PM,74.7,36.1,25,30.04,10.0,WSW,5.8,-,N/A,,Clear,240,2013-10-02 20:15:00
3:35 PM,74.7,34.9,23,30.04,10.0,WSW,4.6,-,N/A,,Clear,240,2013-10-02 20:35:00
3:55 PM,74.3,34.7,24,30.03,10.0,WSW,3.5,-,N/A,,Clear,240,2013-10-02 20:55:00
4:15 PM,74.3,36.9,26,30.03,10.0,SSE,4.6,-,N/A,,Clear,150,2013-10-02 21:15:00
4:35 PM,73.6,37.2,27,30.02,10.0,SSE,5.8,-,N/A,,Clear,150,2013-10-02 21:35:00
4:55 PM,73.6,37.8,27,30.02,10.0,Calm,Calm,-,N/A,,Clear,0,2013-10-02 21:55:00
5:15 PM,72.1,39.7,31,30.02,10.0,SSE,3.5,-,N/A,,Clear,160,2013-10-02 22:15:00
5:35 PM,70.2,39.4,33,30.02,10.0,South,3.5,-,N/A,,Clear,170,2013-10-02 22:35:00
5:55 PM,69.1,40.1,35,30.02,10.0,Calm,Calm,-,N/A,,Clear,0,2013-10-02 22:55:00
6:15 PM,66.7,45.3,46,30.01,10.0,Calm,Calm,-,N/A,,Clear,0,2013-10-02 23:15:00
6:35 PM,64.0,45.0,50,30.01,10.0,Calm,Calm,-,N/A,,Clear,0,2013-10-02 23:35:00
6:55 PM,62.8,44.4,51,30.01,10.0,SSE,3.5,-,N/A,,Clear,150,2013-10-02 23:55:00
7:15 PM,62.8,43.0,48,30.02,10.0,SSE,3.5,-,N/A,,Clear,150,2013-10-03 00:15:00
7:35 PM,62.6,41.4,46,30.03,10.0,SSE,3.5,-,N/A,,Clear,160,2013-10-03 00:35:00
7:55 PM,60.3,41.4,50,30.02,10.0,Calm,Calm,-,N/A,,Clear,0,2013-10-03 00:55:00
8:15 PM,61.0,40.3,46,30.02,10.0,SSE,4.6,-,N/A,,Clear,150,2013-10-03 01:15:00
8:35 PM,62.1,40.3,45,30.03,10.0,SSE,6.9,-,N/A,,Clear,150,2013-10-03 01:35:00
8:55 PM,61.3,40.5,46,30.02,10.0,SSE,9.2,-,N/A,,Clear,150,2013-10-03 01:55:00
9:15 PM,60.4,40.8,48,30.02,10.0,SSE,6.9,-,N/A,,Clear,150,2013-10-03 02:15:00
9:35 PM,60.3,39.6,46,30.01,10.0,SSE,6.9,-,N/A,,Clear,150,2013-10-03 02:35:00
9:55 PM,59.4,39.4,48,30.01,10.0,SSE,5.8,-,N/A,,Clear,150,2013-10-03 02:55:00
10:15 PM,59.4,39.2,47,29.99,10.0,SSE,6.9,-,N/A,,Clear,150,2013-10-03 03:15:00
10:35 PM,60.1,37.6,43,30.00,10.0,South,5.8,-,N/A,,Clear,170,2013-10-03 03:35:00
10:55 PM,59.0,38.3,46,30.00,10.0,South,5.8,-,N/A,,Clear,170,2013-10-03 03:55:00
11:15 PM,57.7,38.8,49,30.00,10.0,South,4.6,-,N/A,,Clear,170,2013-10-03 04:15:00
11:35 PM,55.9,40.1,55,30.00,10.0,Calm,Calm,-,N/A,,Clear,0,2013-10-03 04:35:00
11:55 PM,55.0,40.5,58,29.99,10.0,Calm,Calm,-,N/A,,Scattered Clouds,0,2013-10-03 04:55:00